Tracking 21094 objects as of 13-Aug-2020
HD Live streaming from Space Station
objects crossing your sky now
Track the most recent launched group of Starlink satellites

NAVSTAR 79 (USA 304)

Track NAVSTAR 79 (USA 304) now!
NAVSTAR 79 (USA 304) is classified as:


NORAD ID: 45854
Int'l Code: 2020-041A
Perigee: 20,171.7 km
Apogee: 20,206.2 km
Inclination: 55.1 °
Period: 718.0 minutes
Semi major axis: 26559 km
RCS: Unknown
Launch date: June 30, 2020
Source: United States (US)
Launch site: AIR FORCE EASTERN TEST RANGE (AFETR)
PRN:
aabbcc
Your satellite tracking list
Your tracking list is empty




NASA's NSSDC Master Catalog

Two Line Element Set (TLE):
1 45854U 20041A   20225.31982308 -.00000037 +00000-0 +10000-3 0  9993
2 45854 055.0800 113.2303 0006492 091.5839 268.5502 02.00568217001229
Source of the keplerian elements: AFSPC